FW1555 Weather Reports


Display with metric or nautical units.
time (UTC)temp
F
wind
direction
speed
MPH
gust
MPH
rain 1hr
in
rain 24hr
in
rain mn
in
humidity
%
barometer
mb
20260504180052 69 273 8.0 15.0 0.00 0.00 0.00 38 1009.9
20260504174553 69 265 4.0 17.0 0.00 0.00 0.00 39 1010.0
20260504173055 69 148 4.0 12.0 0.00 0.00 0.00 39 1010.2
20260504171551 68 257 6.0 14.0 0.00 0.00 0.00 40 1010.3
20260504081548 46 0 0.0 3.0 0.00 0.00 0.00 67 1012.5
20260504044547 48 0 0.0 2.0 0.00 0.00 0.00 60 1011.9
20260504043048 48 0 0.0 2.0 0.00 0.00 0.00 59 1011.7
20260504041547 48 261 0.0 3.0 0.00 0.00 0.00 60 1011.7
20260504040107 47 0 0.0 1.0 0.00 0.00 0.00 62 1011.6
20260504034550 46 0 0.0 0.0 0.00 0.00 0.00 64 1011.6
20260504033045 47 0 0.0 0.0 0.00 0.00 0.00 62 1011.7
20260504031556 46 0 0.0 0.0 0.00 0.00 0.00 63 1011.6
20260504030044 47 0 0.0 0.0 0.00 0.00 0.00 61 1011.7
20260504024544 47 0 0.0 0.0 0.00 0.00 0.00 60 1011.6
20260504023045 48 0 0.0 0.0 0.00 0.00 0.00 59 1011.7
20260504021550 49 0 0.0 0.0 0.00 0.00 0.00 57 1011.7
20260504014547 51 0 0.0 0.0 0.00 0.00 0.00 51 1011.5
20260504013048 52 0 0.0 0.0 0.00 0.00 0.00 48 1011.4
20260504011549 54 0 0.0 0.0 0.00 0.00 0.00 46 1011.4
20260504010053 54 0 0.0 0.0 0.00 0.00 0.00 45 1011.1
20260504004549 55 0 0.0 2.0 0.00 0.00 0.00 43 1011.0
20260504003051 55 267 0.0 5.0 0.00 0.00 0.00 41 1010.8
20260504001552 56 0 0.0 7.0 0.00 0.00 0.00 40 1010.5
20260504000050 57 0 0.0 4.0 0.00 0.00 0.00 39 1010.3
20260503234601 57 0 0.0 3.0 0.00 0.00 0.00 39 1010.1
20260503233051 57 0 1.0 7.0 0.00 0.00 0.00 37 1009.9
20260503231548 58 242 1.0 9.0 0.00 0.00 0.00 36 1009.8
20260503230051 59 267 0.0 10.0 0.00 0.00 0.00 35 1009.7
20260503224554 59 275 1.0 14.0 0.00 0.00 0.00 33 1009.6
20260503223050 60 271 4.0 18.0 0.00 0.00 0.00 33 1009.5
20260503221557 60 0 2.0 16.0 0.00 0.00 0.00 34 1009.5
20260503220051 60 268 1.0 14.0 0.00 0.00 0.00 32 1009.5
20260503214545 59 253 3.0 16.0 0.00 0.00 0.00 34 1009.6
20260503213049 60 265 5.0 13.0 0.00 0.00 0.00 32 1009.5
20260503211546 60 263 1.0 10.0 0.00 0.00 0.00 34 1009.5
20260503210050 59 258 4.0 16.0 0.00 0.00 0.00 33 1009.5
20260503204550 59 267 9.0 18.0 0.00 0.00 0.00 33 1009.4
20260503203055 60 311 3.0 10.0 0.00 0.00 0.00 34 1009.5
20260503201551 58 285 4.0 13.0 0.00 0.00 0.00 35 1009.5
20260503200054 58 274 3.0 17.0 0.00 0.00 0.00 36 1009.6
20260503194557 58 290 3.0 18.0 0.00 0.00 0.00 37 1009.8
20260503193049 57 234 7.0 15.0 0.00 0.00 0.00 36 1009.8
20260503191553 57 0 2.0 13.0 0.00 0.00 0.00 38 1010.0
20260503190048 57 0 2.0 13.0 0.00 0.00 0.00 39 1009.9
20260503184548 56 261 4.0 16.0 0.00 0.00 0.00 39 1010.1
20260503183053 55 285 2.0 10.0 0.00 0.00 0.00 42 1010.3
20260503181547 53 303 2.0 18.0 0.00 0.00 0.00 44 1010.5